Location: Seattle
(47.6064°N, 122.3308°W)
Time: 01:45:23
(UTC-08:00)

Tiros 1 - Pass Details

Date: 30 November 2020
Orbit: 630 x 663 km, 48.4° (Epoch: 28 January)

Event Time Altitude Azimuth Distance (km) Brightness Sun altitude
Rises 15:42:42 0° 243° (WSW) 2,988 12.7 4.3°
Reaches altitude 10° 15:45:03 10° 241° (WSW) 2,077 12.0 4.0°
Maximum altitude 15:49:49 67° 159° (SSE) 718 7.6 3.3°
Drops below altitude 10° 15:54:34 10° 77° (ENE) 2,074 9.2 2.7°
Sets 15:56:56 0° 75° (ENE) 2,983 10.0 2.4°
